Location: �clusier
(49.9361°N, 2.7869°E)
Time: 18:51:02
(UTC+00:00)

Cosmos 1025 Rocket - Visible Passes

Search period start: 23 October 2021 00:00
Search period end: 02 November 2021 00:00
Orbit: 593 x 619 km, 82.5° (Epoch: 23 October)

Date Brightness Start Highest point End Pass type
(mag) Time Alt. Az. Time Alt. Az. Time Alt. Az.
23 Oct 5.6 04:06:53 10° SE 04:10:12 22° E 04:13:30 10° NE visible
23 Oct 3.4 05:43:26 10° SW 05:47:32 42° WNW 05:51:39 10° N visible
23 Oct 6.4 17:24:42 10° NW 17:26:35 13° W 17:28:27 10° WSW visible
24 Oct 4.8 04:19:21 10° SSE 04:23:16 34° E 04:27:08 10° NNE visible
25 Oct 3.7 04:32:11 10° S 04:36:22 54° E 04:40:35 10° NNE visible
26 Oct 6.4 03:12:07 10° E 03:12:43 10° E 03:13:18 10° ENE visible
26 Oct 3.0 04:45:15 10° S 04:49:33 88° ESE 04:53:52 10° N visible
27 Oct 5.9 03:22:59 10° ESE 03:25:39 16° E 03:28:21 10° NE visible
27 Oct 3.0 04:58:34 10° SSW 05:02:48 57° WNW 05:07:03 10° N visible
28 Oct 5.2 03:35:09 10° SE 03:38:41 25° E 03:42:12 10° NNE visible
28 Oct 3.5 05:12:09 10° SW 05:16:07 36° WNW 05:20:06 10° N visible
29 Oct 4.3 03:47:55 11° SSE 03:51:45 39° E 03:55:46 10° NNE visible
29 Oct 4.1 05:26:01 10° WSW 05:29:30 24° WNW 05:32:59 10° NNW visible
30 Oct 3.3 04:03:21 37° SSE 04:04:53 64° E 04:09:09 10° NNE visible
30 Oct 4.6 05:40:21 10° WSW 05:42:58 16° WNW 05:45:37 10° NNW visible
31 Oct 6.1 02:41:02 12° E 02:41:09 12° E 02:42:48 10° ENE visible
31 Oct 2.8 04:18:00 78° WSW 04:18:06 79° WNW 04:22:24 10° N visible
31 Oct 4.9 05:55:38 10° WNW 05:56:29 10° WNW 05:57:20 10° NW visible
01 Nov 5.7 02:55:19 17° ENE 02:55:19 17° ENE 02:57:08 10° NE visible
01 Nov 3.5 04:32:16 41° NW 04:32:16 41° NW 04:35:32 10° N visible
